Kosmos-1933

operational
NORAD ID: 18958 Int'l Des: 1988-020 Owner: GRU Country: SU
LEOCIRCULARPOLAR

Kosmos-1933について

説明を読み込み中...

リアルタイム位置

3D地球を読み込み中...

次回通過

高度履歴

Altitude vs Time

uPlot chart will show altitude changes over time

軌道要素

1 18958U 88020A 26062.46176500 .00005025 00000-0 24633-3 0 9997
2 18958 82.5095 257.0758 0003378 206.0516 154.0548 15.17915908 49283
Epoch: Mar 3, 2026 • Age: 21 hours

現在のステータス

高度 526.7 km
速度 7.61 km/s
衛星直下点 82.43°N, 139.76°W
打ち上げ日 Mar 15, 1988
運用期間 37.9 years
タイプ other

技術仕様

分類 Payload
質量 1750.00 kg
乾燥質量 1750.00 kg
総質量 1750.00 kg
長さ 3.20 m
直径 1.30 m
スパン 13.10 m
形状 Cyl + Ant
製造者 YUZH
バスタイプ Tselina-D
フェーズステータス In Orbit
所有者/国 GRU/SU

大規模コンステレーション

Loading constellations...